Date,TemperatureHighF,TemperatureAvgF,TemperatureLowF,DewpointHighF,DewpointAvgF,DewpointLowF,HumidityHigh,HumidityAvg,HumidityLow,PressureMaxIn,PressureMinIn,WindSpeedMaxMPH,WindSpeedAvgMPH,GustSpeedMaxMPH,PrecipitationSumIn
2013-1-1,75,70,68,68,64,63,88,81,71,30.40,30.29,15,10,30,0.00
2013-1-2,73,70,66,67,65,62,90,84,73,30.35,30.26,23,16,37,0.00
2013-1-3,74,70,67,68,64,61,88,81,75,30.35,30.27,21,15,35,0.00
2013-1-4,73,70,66,66,64,61,87,82,74,30.38,30.29,32,26,55,0.00
2013-1-5,75,70,67,65,62,59,87,75,63,30.41,30.31,35,31,56,0.00
2013-1-6,76,71,68,64,61,58,79,72,60,30.41,30.29,34,30,57,0.00
2013-1-7,76,71,68,66,62,56,84,72,56,30.36,30.25,30,26,50,0.00
2013-1-8,76,71,69,64,61,55,82,71,62,30.29,30.16,30,25,48,0.00
2013-1-9,76,71,68,66,63,61,85,78,69,30.28,30.18,29,24,44,0.00
2013-1-10,77,69,68,64,56,-100,81,72,56,30.28,30.19,30,24,47,0.11
2013-1-11,76,71,68,66,63,60,88,76,59,30.26,30.18,20,12,35,0.11
2013-1-12,78,72,68,68,66,64,94,82,68,30.27,30.20,13,8,23,0.00
2013-1-13,78,73,69,69,67,64,90,82,70,30.29,30.22,17,12,26,0.00
2013-1-14,78,72,67,70,68,65,96,87,72,30.30,30.19,15,9,23,0.00
2013-1-15,79,71,68,68,65,63,95,82,65,30.25,30.17,15,9,22,0.00
2013-1-16,78,70,65,65,60,52,90,72,42,30.25,30.15,11,8,23,0.00
2013-1-17,75,70,65,64,60,58,83,73,60,30.23,30.13,10,8,19,0.00
2013-1-18,77,70,65,63,60,57,89,71,50,30.24,30.12,18,12,32,0.00
2013-1-19,75,69,64,62,54,51,80,60,46,30.30,30.19,24,18,39,0.00
2013-1-20,74,69,65,59,56,53,76,64,48,30.34,30.22,29,21,51,0.00
2013-1-21,75,70,65,63,58,56,76,68,52,30.41,30.29,24,16,38,0.00
2013-1-22,76,71,68,65,61,58,78,70,59,30.42,30.33,21,15,35,0.00
2013-1-23,74,70,66,65,63,57,88,78,68,30.36,30.28,25,17,39,0.00
2013-1-24,75,70,66,66,65,62,95,83,67,30.37,30.29,25,20,40,0.00
2013-1-25,78,71,68,67,64,62,92,80,62,30.37,30.29,23,15,36,0.00
2013-1-26,77,72,68,65,62,60,85,73,58,30.35,30.25,19,11,29,0.00
2013-1-27,78,72,66,66,63,58,86,74,65,30.31,30.20,15,8,27,0.00
2013-1-28,76,72,68,67,64,57,94,77,59,30.29,30.20,9,7,18,0.00
2013-1-29,74,69,66,69,65,62,97,87,77,30.32,30.22,12,7,20,0.00
2013-1-30,76,70,66,69,66,62,96,88,74,30.38,30.30,12,6,20,0.00
2013-1-31,74,70,68,69,67,64,94,89,80,30.39,30.31,19,12,30,0.03
2013-2-1,75,70,66,65,61,58,90,74,59,30.41,30.32,30,17,48,0.01
2013-2-2,75,71,67,63,59,56,79,67,56,30.45,30.32,29,22,46,0.01
2013-2-3,75,69,64,59,58,56,78,68,56,30.46,30.37,22,15,39,0.00
2013-2-4,76,70,67,62,60,57,79,69,58,30.41,30.32,27,17,48,0.00
2013-2-5,74,70,66,62,60,58,79,71,64,30.38,30.30,26,16,39,0.00
2013-2-6,76,71,65,67,64,61,89,79,69,30.38,30.30,19,13,31,0.02
2013-2-7,76,71,68,67,65,61,89,80,72,30.42,30.31,26,19,41,0.02
2013-2-8,76,71,67,66,63,59,85,77,68,30.43,30.33,20,14,32,0.00
2013-2-9,76,71,66,66,63,60,83,76,62,30.43,30.34,18,12,30,0.00
2013-2-10,77,71,66,65,62,58,83,74,63,30.49,30.37,25,16,42,0.00
2013-2-11,74,70,67,64,63,59,89,78,59,30.49,30.41,23,14,34,0.01
2013-2-12,74,68,64,64,59,53,91,75,61,30.48,30.38,20,13,37,0.02
2013-2-13,74,68,64,59,56,53,75,66,58,30.43,30.30,20,12,31,0.03
2013-2-14,74,68,64,62,58,52,80,70,60,30.39,30.29,21,14,33,0.03
2013-2-15,76,70,66,65,60,56,79,70,60,30.39,30.28,30,20,47,0.00
2013-2-16,75,70,67,64,61,58,83,73,62,30.42,30.31,31,26,51,0.00
2013-2-17,74,70,67,64,60,56,80,71,61,30.42,30.32,32,26,60,0.00
2013-2-18,76,70,66,63,60,57,88,71,56,30.41,30.32,31,27,51,0.00
2013-2-19,75,70,67,63,58,53,82,66,51,30.43,30.32,28,24,48,0.00
2013-2-20,74,70,67,65,61,58,84,73,60,30.43,30.33,29,19,45,0.00
2013-2-21,75,70,67,66,63,60,86,79,73,30.42,30.34,27,20,47,0.00
2013-2-22,75,71,68,65,63,61,88,77,65,30.41,30.31,26,23,47,0.00
2013-2-23,74,70,66,65,63,60,89,79,69,30.41,30.31,27,23,46,0.00
2013-2-24,74,70,67,63,61,59,83,73,64,30.39,30.30,27,20,44,0.00
2013-2-25,76,71,66,65,61,57,81,72,58,30.42,30.33,26,18,42,0.00
2013-2-26,76,70,67,63,60,57,80,70,57,30.44,30.32,32,23,49,0.00
2013-2-27,75,70,67,61,59,57,76,67,56,30.46,30.37,29,25,46,0.00
2013-2-28,76,71,67,60,57,50,74,62,41,30.48,30.36,29,23,44,0.00
2013-3-1,74,70,66,61,57,52,73,63,51,30.46,30.35,29,20,45,0.00
2013-3-2,75,70,67,61,55,50,77,59,45,30.47,30.34,32,24,48,0.00
2013-3-3,75,70,67,60,56,52,70,61,48,30.47,30.38,26,18,45,0.00
2013-3-4,75,70,66,61,57,52,73,62,47,30.47,30.39,26,18,40,0.00
2013-3-5,76,70,66,62,58,55,79,67,53,30.45,30.35,23,17,35,0.00
2013-3-6,75,70,66,64,62,60,90,76,64,30.43,30.35,25,17,35,0.00
2013-3-7,77,70,66,65,62,61,85,76,60,30.39,30.30,16,11,29,0.00
2013-3-8,78,72,66,66,63,59,91,75,52,30.34,30.21,11,6,23,0.00
2013-3-9,77,71,65,68,65,62,92,80,71,30.28,30.19,18,12,29,0.00
2013-3-10,76,71,66,69,66,61,94,85,77,30.32,30.20,15,10,26,0.01
2013-3-11,79,71,66,67,64,60,88,79,62,30.36,30.25,11,7,18,0.00
2013-3-12,78,70,67,67,64,61,92,82,63,30.38,30.26,16,9,26,0.00
2013-3-13,76,70,65,63,61,59,86,74,59,30.38,30.30,16,12,28,0.00
2013-3-14,78,71,67,66,64,60,83,77,61,30.38,30.28,11,7,17,0.00
2013-3-15,77,72,68,65,61,56,87,70,49,30.30,30.21,16,9,26,0.00
2013-3-16,74,69,65,63,58,50,89,69,45,30.30,30.21,22,13,29,0.00
2013-3-17,76,69,64,58,56,51,72,63,45,30.33,30.24,14,10,27,0.00
2013-3-18,75,69,64,60,58,54,80,68,55,30.34,30.24,13,10,21,0.00
2013-3-19,77,71,66,64,61,58,84,72,58,30.34,30.24,11,8,21,0.00
2013-3-20,76,72,69,68,65,61,88,78,70,30.38,30.27,12,7,18,0.00
2013-3-21,80,74,69,68,66,64,89,77,60,30.38,30.28,18,10,27,0.00
2013-3-22,76,72,69,68,66,63,88,81,64,30.35,30.24,12,7,21,0.00
2013-3-23,76,71,66,68,66,63,96,84,67,30.32,30.22,18,8,26,0.00
2013-3-24,76,71,67,68,65,63,94,83,73,30.35,30.23,19,12,29,0.00
2013-3-25,77,72,69,68,66,64,88,80,71,30.33,30.24,16,13,26,0.00
2013-3-26,78,72,68,67,64,62,88,78,57,30.35,30.25,16,12,24,0.00
2013-3-27,77,72,68,66,64,63,85,77,67,30.32,30.24,17,12,25,0.00
2013-3-28,77,73,69,65,64,62,83,75,63,30.34,30.25,25,17,39,0.00
2013-3-29,74,70,67,67,64,62,91,82,69,30.35,30.28,21,13,34,0.00
2013-3-30,73,69,66,68,65,61,93,88,75,30.37,30.27,17,9,26,0.00
2013-3-31,74,68,63,64,57,54,91,69,51,30.32,30.24,22,16,36,0.00
2013-4-1,74,68,61,57,54,50,76,62,44,30.31,30.22,18,10,29,0.00
2013-4-2,74,68,64,58,55,51,77,63,47,30.38,30.26,18,13,30,0.00
2013-4-3,74,69,64,63,59,56,79,72,63,30.39,30.30,19,12,28,0.00
2013-4-4,76,71,65,66,63,59,87,76,65,30.40,30.30,18,13,26,0.00
2013-4-5,77,72,68,67,64,61,87,77,61,30.42,30.32,24,17,37,0.00
2013-4-6,79,74,70,69,67,65,87,80,68,30.46,30.35,27,22,42,0.00
2013-4-7,78,73,70,69,66,65,89,80,68,30.47,30.38,26,20,38,0.00
2013-4-8,78,73,69,67,65,63,86,77,64,30.40,30.29,22,18,33,0.00
2013-4-9,78,72,68,68,65,62,93,79,64,30.38,30.27,23,18,36,0.00
2013-4-10,78,73,69,67,65,62,86,75,63,30.37,30.26,25,21,41,0.00
2013-4-11,79,74,70,68,66,63,89,77,64,30.35,30.25,29,21,44,0.00
2013-4-12,78,73,69,67,65,61,85,77,67,30.30,30.22,21,16,33,0.00
2013-4-13,78,73,69,68,66,64,88,79,69,30.28,30.21,19,10,32,0.00
2013-4-14,77,73,71,70,68,66,90,84,74,30.29,30.20,12,8,24,0.00
2013-4-15,79,74,68,69,67,65,93,81,64,30.36,30.24,10,5,16,0.00
2013-4-16,79,74,70,69,67,66,89,80,71,30.41,30.31,17,13,26,0.00
2013-4-17,78,73,71,71,66,63,87,79,69,30.44,30.34,23,19,38,0.00
2013-4-18,78,73,70,68,65,61,83,76,68,30.43,30.36,25,21,41,0.00
2013-4-19,75,72,69,68,65,61,85,79,75,30.41,30.32,25,19,41,0.00
2013-4-20,79,73,69,68,65,62,87,75,60,30.39,30.33,17,13,31,0.00
2013-4-21,79,74,67,68,65,61,89,76,65,30.36,30.28,10,5,18,0.00
2013-4-22,79,74,70,69,68,66,89,82,70,30.37,30.28,14,7,22,0.00
2013-4-23,80,74,70,70,68,66,91,81,69,30.38,30.30,10,7,19,0.00
2013-4-24,79,75,69,69,67,64,87,78,66,30.40,30.31,19,11,29,0.00
2013-4-25,78,74,70,68,65,62,83,74,59,30.38,30.29,25,18,39,0.00
2013-4-26,78,73,70,65,63,61,80,71,60,30.35,30.28,25,20,41,0.00
2013-4-27,78,73,69,67,64,62,80,72,63,30.37,30.27,19,16,31,0.00
2013-4-28,79,75,70,69,66,63,86,74,61,30.35,30.26,15,9,26,0.00
2013-4-29,80,75,70,70,67,65,87,78,66,30.32,30.24,13,8,20,0.00
2013-4-30,79,74,69,71,68,65,93,81,70,30.35,30.26,17,9,27,0.00
2013-5-1,79,74,70,67,66,64,86,76,66,30.38,30.30,22,17,36,0.00
2013-5-2,77,73,68,68,66,63,93,79,68,30.39,30.32,26,18,39,0.00
2013-5-3,78,73,69,66,64,63,84,75,62,30.39,30.30,21,15,30,0.00
2013-5-4,79,73,69,67,66,64,86,78,64,30.32,30.23,16,10,25,0.00
2013-5-5,77,72,69,69,67,65,92,85,73,30.28,30.19,12,7,20,0.00
2013-5-6,77,71,67,70,68,65,96,89,78,30.28,30.18,10,6,18,0.00
2013-5-7,79,74,69,71,68,65,92,82,73,30.30,30.21,10,7,15,0.00
2013-5-8,80,74,69,70,68,66,90,82,69,30.34,30.24,8,6,14,0.00
2013-5-9,81,75,69,70,68,66,93,79,61,30.38,30.28,11,5,17,0.00
2013-5-10,83,75,71,70,67,-100,90,79,61,30.40,30.32,20,12,30,0.00
2013-5-11,78,72,69,70,67,63,90,84,71,30.39,30.31,22,15,33,0.00
2013-5-12,75,72,70,71,68,66,93,86,80,30.40,30.30,24,13,41,0.00
2013-5-13,81,76,70,70,66,63,91,73,54,30.37,30.30,25,19,41,0.00
2013-5-14,80,75,72,69,66,63,82,74,66,30.41,30.32,26,20,45,0.00
2013-5-15,80,75,71,68,66,63,85,75,62,30.43,30.35,27,20,42,0.00
2013-5-16,79,70,71,68,45,-100,83,72,52,30.43,30.33,28,21,45,0.00
2013-5-17,79,74,71,68,59,-100,84,73,61,30.39,30.29,24,19,37,0.00
2013-5-18,79,74,71,68,66,62,83,75,67,30.36,30.27,17,13,29,0.00
2013-5-19,80,74,69,69,66,63,87,75,63,30.31,30.22,14,8,21,0.00
2013-5-20,79,73,67,68,66,63,92,78,61,30.30,30.22,12,9,19,0.00
2013-5-21,79,74,69,68,66,65,88,77,65,30.33,30.24,9,5,23,0.00
2013-5-22,80,76,71,69,68,66,88,78,64,30.36,30.26,10,6,17,0.00
2013-5-23,79,76,72,71,69,67,88,80,71,30.37,30.29,19,14,30,0.00
2013-5-24,79,75,71,69,67,64,86,78,62,30.38,30.30,22,15,34,0.00
2013-5-25,78,74,71,69,66,62,88,77,66,30.37,30.30,26,17,42,0.00
2013-5-26,79,75,71,69,66,63,82,74,65,30.41,30.31,24,21,39,0.00
2013-5-27,79,74,70,69,66,64,86,76,65,30.40,30.33,23,20,38,0.00
2013-5-28,79,75,71,70,68,66,88,80,71,30.41,30.33,19,16,31,0.00
2013-5-29,80,75,71,70,68,66,92,79,68,30.40,30.32,20,16,30,0.00
2013-5-30,79,75,71,70,67,66,87,78,68,30.36,30.25,21,16,33,0.00
2013-5-31,80,75,71,71,69,67,92,81,69,30.36,30.25,27,20,41,0.00
2013-6-1,80,75,72,70,68,65,87,78,66,30.39,30.29,28,22,43,0.00
2013-6-2,80,76,72,73,68,65,89,78,64,30.38,30.32,27,21,42,0.00
2013-6-3,81,75,73,69,66,60,81,73,61,30.39,30.31,27,24,44,0.00
2013-6-4,80,75,72,68,65,61,81,72,54,30.35,30.28,28,22,46,0.00
2013-6-5,79,75,71,67,65,62,82,71,63,30.35,30.28,26,20,42,0.00
2013-6-6,80,75,72,67,64,62,78,70,57,30.35,30.26,24,19,40,0.00
2013-6-7,79,74,70,67,64,61,79,70,59,30.35,30.25,27,20,44,0.00
2013-6-8,78,74,69,68,66,63,88,76,65,30.37,30.28,25,18,37,0.00
2013-6-9,79,74,71,68,67,65,86,77,67,30.39,30.30,22,18,36,0.00
2013-6-10,79,75,71,68,67,64,82,77,67,30.38,30.30,23,18,37,0.00
2013-6-11,79,75,72,68,66,63,84,74,61,30.34,30.27,26,21,39,0.00
2013-6-12,81,75,72,69,66,61,85,74,57,30.38,30.29,27,23,46,0.00
2013-6-13,79,75,72,69,67,65,86,76,67,30.39,30.33,27,23,46,0.00
2013-6-14,80,75,70,69,66,64,92,75,63,30.38,30.30,26,22,42,0.00
2013-6-15,79,75,71,68,65,61,80,70,62,30.33,30.24,22,19,36,0.00
2013-6-16,80,75,71,68,65,63,82,72,60,30.33,30.23,24,20,39,0.00
2013-6-17,80,75,71,68,66,62,85,74,57,30.38,30.29,24,20,37,0.00
2013-6-18,80,76,72,69,67,65,84,75,65,30.38,30.31,26,21,41,0.00
2013-6-19,80,75,71,69,66,63,88,75,63,30.38,30.32,23,18,34,0.00